This demonstration page uses our WeatherBlox Daily Observations layout. Learn more.

Left ArrowRight Arrow

Hourly Observations for October 2, 2022

Temp ( °F °C ) Dew Point ( °F °C ) Humidity (%) Winds ( mph kmh ) Pressure ( in mb ) Visibility ( mi km ) Precip ( " mm )
12:55 am 00:55 Cloudy 62 16.6 42 5.5 48 48 Calm 30.24 1024 10 16 0.00 0.00
1:55 am 01:55 Cloudy 59 15.2 43 6.2 55 55 SE 5 7 30.24 1024 10 16 0.00 0.00
2:55 am 02:55 Cloudy 59 14.9 43 5.9 55 55 SE 7 11 30.25 1024 10 16 0.00 0.00
3:55 am 03:55 Cloudy 58 14.2 43 6.1 58 58 SE 8 13 30.25 1024 10 16 0.00 0.00
4:55 am 04:55 Mostly Cloudy 58 14.3 42 5.6 56 56 SE 6 9 30.25 1024 10 16 0.00 0.00
5:55 am 05:55 Mostly Cloudy 56 13.6 42 5.7 59 59 SE 3 6 30.27 1025 10 16 0.00 0.00
6:55 am 06:55 Partly Cloudy 56 13.1 42 5.7 61 61 ESE 5 7 30.29 1026 10 16 0.00 0.00
7:55 am 07:55 Mostly Cloudy 54 12.4 42 5.8 64 64 Calm 30.32 1027 10 16 0.00 0.00
8:55 am 08:55 Mostly Sunny 56 13.4 45 7 65 65 E 3 6 30.33 1027 10 16 0.00 0.00
9:55 am 09:55 Partly Cloudy 59 14.9 45 7 59 59 E 5 7 30.34 1027 10 16 0.00 0.00
10:55 am 10:55 Mostly Cloudy 64 18 46 7.7 51 51 SSE 10 17 30.33 1027 10 16 0.00 0.00
11:55 am 11:55 Sunny 71 21.4 43 6.1 37 37 S 9 15 30.32 1027 10 16 0.00 0.00
12:55 pm 12:55 Mostly Sunny 73 22.6 40 4.6 31 31 SE 9 15 30.31 1026 10 16 0.00 0.00
1:55 pm 13:55 Mostly Sunny 75 24 42 5.8 31 31 S 6 9 30.29 1026 10 16 0.00 0.00
2:55 pm 14:55 Mostly Sunny 76 24.5 42 5.8 30 30 ESE 10 17 30.26 1025 10 16 0.00 0.00
3:55 pm 15:55 Partly Cloudy 80 26.5 39 3.7 23 23 SSE 13 20 30.25 1024 10 16 0.00 0.00
4:55 pm 16:55 Partly Cloudy 80 26.9 39 4 23 23 SE 12 19 30.24 1024 10 16 0.00 0.00
5:55 pm 17:55 Mostly Sunny 79 25.9 41 4.9 26 26 SE 14 22 30.23 1024 10 16 0.00 0.00
6:55 pm 18:55 Sunny 71 21.9 42 5.3 34 34 SE 9 15 30.24 1024 10 16 0.00 0.00
7:55 pm 19:55 Clear 67 19.6 41 4.9 38 38 ESE 6 9 30.26 1025 10 16 0.00 0.00
8:55 pm 20:55 Clear 65 18.5 40 4.6 40 40 SE 3 6 30.27 1025 10 16 0.00 0.00
9:55 pm 21:55 Clear 64 17.6 41 4.9 43 43 SSE 3 6 30.27 1025 10 16 0.00 0.00
10:55 pm 22:55 Clear 61 16.2 42 5.5 49 49 SSE 6 9 30.27 1025 10 16 0.00 0.00
11:55 pm 23:55 Clear 61 15.9 42 5.8 51 51 VRB 1 2 30.26 1025 10 16 0.00 0.00

Powered by AerisWeather